Location: Millers Ferry
(32.0990°N, 87.3680°W)
Time: 20:50:49
(UTC-05:00)

CSL-04 Rocket - Visible Passes

Search period start: 28 June 2016 00:00
Search period end: 08 July 2016 00:00
Orbit: 806 x 861 km, 99.0° (Epoch: 27 June)

Date Brightness Start Highest point End Pass type
(mag) Time Alt. Az. Time Alt. Az. Time Alt. Az.
30 Jun 6.0 05:09:56 10° NE 05:14:18 24° E 05:18:40 10° SSE visible
01 Jul 6.3 04:54:00 10° ENE 04:57:18 16° E 05:00:36 10° SE visible
02 Jul 6.8 04:39:47 10° E 04:40:16 10° E 04:40:45 10° E visible
06 Jul 6.1 05:09:04 10° NE 05:13:23 23° E 05:17:42 10° SSE visible
07 Jul 6.4 04:53:11 10° ENE 04:56:24 16° E 04:59:36 10° SE visible
